This is the latest recevied weather packets stored in our database for station/object WD4IXD. If no packets are shown the sender has not sent any weather packets the latest 10 day(s).
| Time | Temp. | Humidity | Pressure | Rain* | Wind** | Luminosity | Snow |
|---|---|---|---|---|---|---|---|
| 1777663204 | 14.44° C | 31% | 1020.4 hPa | 0 mm | - | 1025 W/m² | - |
| 1777662915 | 14.44° C | 32% | 1020.4 hPa | 0 mm | - | 1086 W/m² | - |
| 1777662604 | 14.44° C | 32% | 1020.4 hPa | 0 mm | - | 1086 W/m² | - |
| 1777662316 | 15° C | 31% | 1020.5 hPa | 0 mm | - | 1063 W/m² | - |
| 1777662004 | 16.11° C | 32% | 1020.6 hPa | 0 mm | - | 1021 W/m² | - |
| 1777661715 | 15.56° C | 30% | 1020.6 hPa | 0 mm | - | 1016 W/m² | - |
| 1777661415 | 15.56° C | 32% | 1020.6 hPa | 0 mm | - | 1013 W/m² | - |
| 1777661104 | 14.44° C | 31% | 1020.7 hPa | 0 mm | - | 1032 W/m² | - |
| 1777660804 | 15° C | 33% | 1020.7 hPa | 0 mm | - | 1037 W/m² | - |
| 1777660515 | 13.89° C | 34% | 1020.7 hPa | 0 mm | - | 1034 W/m² | - |
| 1777660204 | 13.33° C | 33% | 1020.7 hPa | 0 mm | - | 1027 W/m² | - |
| 1777659915 | 14.44° C | 34% | 1020.8 hPa | 0 mm | - | 230 W/m² | - |
| 1777659604 | 15° C | 34% | 1020.8 hPa | 0 mm | - | 271 W/m² | - |
| 1777659304 | 14.44° C | 34% | 1020.8 hPa | 0 mm | - | 213 W/m² | - |
| 1777659004 | 13.89° C | 33% | 1020.9 hPa | 0 mm | - | 1069 W/m² | - |
| 1777658715 | 13.89° C | 32% | 1020.9 hPa | 0 mm | - | 1027 W/m² | - |
| 1777658404 | 14.44° C | 32% | 1020.9 hPa | 0 mm | - | 253 W/m² | - |
| 1777658115 | 14.44° C | 34% | 1021 hPa | 0 mm | - | 213 W/m² | - |
| 1777657804 | 13.89° C | 35% | 1020.9 hPa | 0 mm | - | 230 W/m² | - |
| 1777657515 | 13.33° C | 34% | 1021 hPa | 0 mm | - | 1000 W/m² | - |
| 1777657215 | 14.44° C | 32% | 1021 hPa | 0 mm | - | 1030 W/m² | - |
| 1777656904 | 14.44° C | 33% | 1021.1 hPa | 0 mm | - | 1030 W/m² | - |
| 1777656615 | 13.89° C | 34% | 1021.2 hPa | 0 mm | - | 1021 W/m² | - |
| 1777656304 | 13.89° C | 33% | 1021.2 hPa | 0 mm | - | 990 W/m² | - |
| 1777656015 | 14.44° C | 36% | 1021.1 hPa | 0 mm | - | 970 W/m² | - |
* Rain latest hour (hover to see other rain measurements)
** Current wind speed in m/s (hover to see current wind gust speed)